Simultaneous Nadir Overpasses (SNOs) Predictions

Prediction of SNOs between GOES-17 and FY3D Satellite Orbit:

Table of predicted SNOs for the next 14.0 days since TLE Epoch: 10/7/2023
Index Date Time (GOES-17) GOES-17 Lat,Lon FY3D Lat,Lon Distance(km) Time Diff (sec)
1 10/09/2023 09:10:45 -0.02,-104.71 -0.03,-104.68 3.57 80
2 10/11/2023 21:14:46 0.01,-104.69 -0.18,-105.62 105.28 80
3 10/12/2023 20:59:00 0.01,-104.69 0.81,-101.15 404.07 80
4 10/14/2023 09:21:18 -0.00,-104.72 0.41,-106.51 203.78 80
5 10/15/2023 09:00:12 0.00,-104.72 -0.58,-102.04 305.40 80
6 10/16/2023 21:22:37 -0.02,-104.69 -0.64,-107.43 312.41 80
7 10/17/2023 21:06:52 -0.03,-104.69 0.36,-102.97 196.75 80
8 10/19/2023 09:29:09 0.03,-104.72 0.85,-108.33 411.38 80
9 10/20/2023 09:08:04 0.03,-104.71 -0.15,-103.86 97.11 80
